Change the Weather History Date:

Friday, May 24, 2013

  Actual Average Record
Temperature  
Mean Temperature 43 °F -  
Max Temperature 53 °F 46 °F 68 °F (2002)
Min Temperature 33 °F 31 °F 28 °F (2000)
Degree Days  
Heating Degree Days 22    
Moisture  
Dew Point 27 °F    
Average Humidity 53    
Maximum Humidity 75    
Minimum Humidity 30    
Precipitation  
Precipitation 0.00 in - - ()
Sea Level Pressure  
Sea Level Pressure 30.02 in    
Wind  
Wind Speed 3 mph (ENE)    
Max Wind Speed 12 mph    
Max Gust Speed 16 mph    
Visibility 10 miles    
Events      
Averages and records for this station are not official NWS values.
T = Trace of Precipitation, MM = Missing Value Source: NWS Daily Summary

Daily Weather History Graph

Daily Weather History Graph

Search for Another Location

Airport or City:

Trip Planner

Search our weather history database for the weather conditions in past years. The results will help you decide how hot, cold, wet, or windy it might be!

Date:

Astronomy

May. 24, 2013 Rise Set
Actual Time 4:32 AM AKDT 11:00 PM AKDT
Civil Twilight 2:57 AM AKDT 12:38 AM AKDT
Nautical Twilight Sun does not rise Sun does not rise
Astronomical Twilight Sun does not rise Sun does not rise
Moon 10:42 PM AKDT (5/24) 4:33 AM AKDT (5/24)
Length of Visible Light 21h 41m
Length of Day
18h 28m
Full, 100% of the Moon is Illuminated
May 24
Full
May 24
Full
May 31
Last Quarter
Jun 8
New
Jun 16
First Quarter

Hourly Weather History & Observations

Time (AKDT) Temp. Windchill Dew Point Humidity Pressure Visibility Wind Dir Wind Speed Gust Speed Precip Events Conditions
12:16 AM 37.4 °F - 28.4 °F 70% 30.06 in 10.0 mi Calm Calm - N/A   Mostly Cloudy
12:36 AM 37.4 °F - 28.4 °F 70% 30.07 in 10.0 mi Calm Calm - N/A   Mostly Cloudy
12:56 AM 37.4 °F - 26.6 °F 65% 30.06 in 10.0 mi Calm Calm - N/A   Scattered Clouds
1:16 AM 35.6 °F - 26.6 °F 70% 30.06 in 10.0 mi Calm Calm - N/A   Partly Cloudy
1:36 AM 35.6 °F - 26.6 °F 70% 30.06 in 10.0 mi Calm Calm - N/A   Clear
1:56 AM 33.8 °F - 26.6 °F 75% 30.06 in 10.0 mi Calm Calm - N/A   Clear
2:16 AM 33.8 °F - 26.6 °F 75% 30.06 in 10.0 mi Calm Calm - N/A   Clear
2:36 AM 35.6 °F - 26.6 °F 70% 30.06 in 10.0 mi Calm Calm - N/A   Clear
2:56 AM 37.4 °F - 26.6 °F 65% 30.06 in 10.0 mi Calm Calm - N/A   Partly Cloudy
3:16 AM 37.4 °F - 26.6 °F 65% 30.06 in 10.0 mi Calm Calm - N/A   Mostly Cloudy
3:36 AM 37.4 °F - 26.6 °F 65% 30.06 in 10.0 mi Calm Calm - N/A   Overcast
3:56 AM 35.6 °F - 26.6 °F 70% 30.05 in 10.0 mi Calm Calm - N/A   Overcast
4:16 AM 37.4 °F - 28.4 °F 70% 30.05 in 10.0 mi Calm Calm - N/A   Overcast
4:36 AM 35.6 °F - 26.6 °F 70% 30.05 in 10.0 mi Calm Calm - N/A   Scattered Clouds
4:56 AM 35.6 °F - 26.6 °F 70% 30.04 in 10.0 mi Calm Calm - N/A   Clear
5:16 AM 35.6 °F - 26.6 °F 70% 30.04 in 10.0 mi Calm Calm - N/A   Partly Cloudy
5:36 AM 35.6 °F - 26.6 °F 70% 30.04 in 10.0 mi Calm Calm - N/A   Clear
5:56 AM 35.6 °F - 26.6 °F 70% 30.04 in 10.0 mi Calm Calm - N/A   Clear
6:16 AM 37.4 °F - 26.6 °F 65% 30.04 in 10.0 mi Calm Calm - N/A   Scattered Clouds
6:36 AM 37.4 °F - 28.4 °F 70% 30.04 in 10.0 mi Calm Calm - N/A   Clear
6:56 AM 37.4 °F 34.9 °F 28.4 °F 70% 30.03 in 10.0 mi NNE 3.5 mph - N/A   Clear
7:16 AM 39.2 °F - 28.4 °F 65% 30.03 in 10.0 mi Calm Calm - N/A   Partly Cloudy
7:36 AM 39.2 °F - 28.4 °F 65% 30.03 in 10.0 mi Calm Calm - N/A   Partly Cloudy
7:56 AM 41.0 °F - 28.4 °F 61% 30.03 in 10.0 mi Calm Calm - N/A   Clear
8:16 AM 42.8 °F - 30.2 °F 61% 30.03 in 10.0 mi Calm Calm - N/A   Unknown
8:36 AM 41.0 °F - 28.4 °F 61% 30.03 in 10.0 mi Calm Calm - N/A   Partly Cloudy
8:56 AM 42.8 °F - 28.4 °F 57% 30.03 in 10.0 mi Calm Calm - N/A   Mostly Cloudy
9:16 AM 42.8 °F 41.1 °F 28.4 °F 57% 30.02 in 10.0 mi NE 3.5 mph - N/A   Partly Cloudy
9:36 AM 42.8 °F - 28.4 °F 57% 30.03 in 10.0 mi Calm Calm - N/A   Clear
9:56 AM 44.6 °F 42.2 °F 28.4 °F 53% 30.03 in 10.0 mi NNE 4.6 mph - N/A   Clear
10:16 AM 44.6 °F 42.2 °F 28.4 °F 53% 30.03 in 10.0 mi NNE 4.6 mph - N/A   Clear
10:36 AM 44.6 °F 40.2 °F 30.2 °F 57% 30.03 in 10.0 mi North 8.1 mph - N/A   Clear
10:56 AM 44.6 °F 40.2 °F 30.2 °F 57% 30.02 in 10.0 mi North 8.1 mph - N/A   Clear
11:16 AM 46.4 °F 41.5 °F 30.2 °F 53% 30.02 in 10.0 mi North 10.4 mph - N/A   Clear
11:36 AM 46.4 °F 42.4 °F 30.2 °F 53% 30.02 in 10.0 mi North 8.1 mph - N/A   Clear
11:56 AM 46.4 °F 41.1 °F 30.2 °F 53% 30.02 in 10.0 mi North 11.5 mph - N/A   Clear
12:16 PM 46.4 °F 41.5 °F 30.2 °F 53% 30.02 in 10.0 mi North 10.4 mph - N/A   Clear
12:36 PM 46.4 °F 41.5 °F 30.2 °F 53% 30.01 in 10.0 mi North 10.4 mph - N/A   Clear
12:56 PM 48.2 °F - 30.2 °F 50% 30.01 in 10.0 mi North 8.1 mph - N/A   Clear
1:16 PM 48.2 °F - 30.2 °F 50% 30.01 in 10.0 mi North 10.4 mph - N/A   Clear
1:36 PM 48.2 °F - 32.0 °F 54% 30.00 in 10.0 mi North 5.8 mph - N/A   Clear
1:56 PM 48.2 °F - 30.2 °F 50% 30.00 in 10.0 mi NNE 6.9 mph - N/A   Clear
2:16 PM 50.0 °F - 30.2 °F 47% 30.00 in 10.0 mi NNE 6.9 mph - N/A   Clear
2:36 PM 50.0 °F - 30.2 °F 47% 30.00 in 10.0 mi North 5.8 mph - N/A   Clear
2:56 PM 50.0 °F - 30.2 °F 47% 30.00 in 10.0 mi NE 4.6 mph - N/A   Clear
3:16 PM 51.8 °F - 30.2 °F 44% 29.99 in 10.0 mi NNE 5.8 mph - N/A   Clear
3:36 PM 51.8 °F - 30.2 °F 44% 29.99 in 10.0 mi North 9.2 mph - N/A   Clear
3:56 PM 51.8 °F - 28.4 °F 41% 29.99 in 10.0 mi SSE 5.8 mph - N/A   Clear
4:16 PM 53.6 °F - 26.6 °F 35% 29.99 in 10.0 mi SE 8.1 mph 16.1 mph N/A   Clear
4:36 PM 53.6 °F - 26.6 °F 35% 29.99 in 10.0 mi ESE 5.8 mph - N/A   Clear
4:56 PM 53.6 °F - 26.6 °F 35% 29.99 in 10.0 mi SSE 4.6 mph - N/A   Clear
5:16 PM 53.6 °F - 26.6 °F 35% 29.99 in 10.0 mi SSE 5.8 mph - N/A   Clear
5:36 PM 53.6 °F - 26.6 °F 35% 29.99 in 10.0 mi SE 9.2 mph - N/A   Clear
5:56 PM 53.6 °F - 24.8 °F 33% 29.99 in 10.0 mi ESE 10.4 mph - N/A   Clear
6:16 PM 53.6 °F - 24.8 °F 33% 29.98 in 10.0 mi ESE 11.5 mph - N/A   Clear
6:36 PM 53.6 °F - 24.8 °F 33% 29.98 in 10.0 mi SSE 9.2 mph - N/A   Clear
6:56 PM 53.6 °F - 24.8 °F 33% 29.98 in 10.0 mi ESE 6.9 mph - N/A   Clear
7:16 PM 53.6 °F - 24.8 °F 33% 29.98 in 10.0 mi SSE 6.9 mph - N/A   Clear
7:36 PM 53.6 °F - 24.8 °F 33% 29.98 in 10.0 mi SSE 5.8 mph - N/A   Clear
7:56 PM 53.6 °F - 23.0 °F 30% 29.98 in 10.0 mi SE 4.6 mph - N/A   Clear
8:16 PM 53.6 °F - 24.8 °F 33% 29.98 in 10.0 mi SSE 4.6 mph - N/A   Clear
8:36 PM 53.6 °F - 24.8 °F 33% 29.98 in 10.0 mi SSE 4.6 mph - N/A   Clear
8:56 PM 51.8 °F - 24.8 °F 35% 29.98 in 10.0 mi South 3.5 mph - N/A   Clear
9:16 PM 51.8 °F - 24.8 °F 35% 29.98 in 10.0 mi South 4.6 mph - N/A   Clear
9:36 PM 51.8 °F - 23.0 °F 33% 29.98 in 10.0 mi Calm Calm - N/A   Clear
9:56 PM 48.2 °F - 24.8 °F 40% 29.98 in 10.0 mi Calm Calm - N/A   Clear
10:16 PM 44.6 °F - 24.8 °F 46% 29.98 in 10.0 mi Calm Calm - N/A   Clear
10:36 PM 44.6 °F 41.4 °F 26.6 °F 49% 29.99 in 10.0 mi NE 5.8 mph - N/A   Clear
10:56 PM 44.6 °F 41.4 °F 26.6 °F 49% 29.98 in 10.0 mi ENE 5.8 mph - N/A   Clear
11:16 PM 44.6 °F 40.2 °F 26.6 °F 49% 29.98 in 10.0 mi NE 8.1 mph - N/A   Partly Cloudy
11:36 PM 42.8 °F 38.0 °F 21.2 °F 42% 29.98 in 10.0 mi NNE 8.1 mph - N/A   Partly Cloudy
11:56 PM 41.0 °F - 24.8 °F 53% 29.99 in 10.0 mi Calm Calm - N/A   Clear